www.pogodaiklimat.ru

Погода и климат >> Архив погоды >> Украина >> Маневичи


ПОГОДА в Маневичах

  • Прогноз погоды в Маневичах
  • Монитор погоды в Маневичах

АРХИВ ПОГОДЫ в Маневичах

Время (UTC), дата Ветер
(напр.,м/с)
 
Видим.   Явления Облачность Т
(С)
Тd
(С)
f
(%)
Тe
(С)
Тes
(С)
Комфортность P
(гПа)
Po
(гПа)
Тmin
(С)
Tmax
(С)
R
(мм)
R24
(мм)
S
(см)
00 13.06 штиль 0 20 км ясно +18.7 +16.7 88 +20 +20 1016.6 993.0
03 13.06 штиль 0 10 км ясно +18.0 +16.3 90 +18 +18 1016.3 992.7
06 13.06 ЮВ 1 20 км ясно +26.1 +17.4 59 +30 +38 душно 1016.7 993.7 +17.8
09 13.06 ЮВ 4 20 км 3/3 600 м
[Cu med, cong]
+30.1 +16.0 43 +33 +41 душно 1016.6 993.9
12 13.06 Ю 2 20 км 6/6 600 м
[Cu med, cong]
+32.4 +15.4 36 +35 +41 душно 1015.9 993.4
15 13.06 ЮВ 1 20 км {гроза} 4/3 600 м
[Cb cap Ci fib]
+29.5 +17.8 49 +34 +38 очень
душно
1015.0 992.3
18 13.06 штиль 0 20 км {гроза} 3/1 600 м
[Cb calv Ci fib]
+26.9 +19.2 63 +32 +32 очень
душно
1016.0 993.1 +32.8
21 13.06 ЮВ 2 20 км 3/0
[Ci fib]
+22.2 +15.6 66 +26 +26 душно 1017.3 994.0
00 14.06 ЮВ 1 20 км ясно +19.2 +16.0 82 +22 +22 комфорт 1017.7 994.1
03 14.06 ЮВ 1 20 км 1/0
[Ci fib]
+17.8 +15.2 85 +19 +19 1017.9 994.2
06 14.06 Ю 2 20 км ясно +23.2 +16.5 66 +28 +35 душно 1018.3 995.0 +17.5
09 14.06 ЮВ 3 20 км ясно +29.2 +16.2 45 +32 +46 душно 1017.8 995.0
12 14.06 Ю 2 20 км 3/3 600 м
[Cu hum]
+31.6 +15.4 38 +34 +45 душно 1017.0 994.4
15 14.06 З 1 20 км 8/8 600 м
[Cb cap]
+31.0 +14.1 36 +33 +34 душно 1016.6 993.9
18 14.06 В 2 20 км {гроза} 9/0
[Ac cuf Ci sp]
+24.6 +16.7 61 +28 +28 душно 1017.7 994.5 +32.5
21 14.06 штиль 0 20 км 9/0
[Ci fib]
+20.8 +16.2 75 +24 +24 комфорт 1018.4 994.9
00 15.06 штиль 0 20 км 1/0
[Ci fib]
+18.4 +16.2 87 +19 +19 1018.3 994.6
03 15.06 штиль 0 10 км 1/0
[Ci fib]
+17.1 +15.6 91 +17 +17 1018.0 994.2
06 15.06 ЮВ 2 20 км 1/0
[Ci fib]
+26.5 +15.4 51 +30 +36 душно 1017.2 994.2 +16.4
09 15.06 ЮВ 2 20 км 4/0
[Ci fib]
+29.2 +15.9 45 +32 +47 душно 1016.4 993.6
12 15.06 Ю 3 20 км 6/6 600 м
[Cu med, cong]
+31.1 +16.2 41 +34 +39 душно 1014.7 992.1
18 15.06 штиль 0 20 км 3/0
[Ci fib]
+28.8 +18.4 53 +34 +34 очень
душно
1013.0 990.3 +32.5
21 15.06 штиль 0 20 км ясно +22.2 +17.5 75 +27 +27 душно 1013.5 990.3
00 16.06 штиль 0 20 км ясно +19.4 +16.6 84 +21 +21 комфорт 1013.7 990.2
03 16.06 штиль 0 20 км 6/0
[Ci fib]
+19.8 +17.4 86 +22 +23 комфорт 1013.1 989.7
06 16.06 ЮЗ 2 20 км 8/0
[Ci fib]
+26.6 +17.6 58 +31 +37 душно 1013.0 990.1 +19.0
09 16.06 ЮЗ 3 20 км 9/0
[Ci sp]
+30.8 +16.4 42 +34 +45 очень
душно
1012.5 989.9
12 16.06 Ю 3 20 км 9/1 600 м
[Cu med, cong Ci sp]
+33.0 +13.0 30 +34 +43 очень
жарко
1011.7 989.3
15 16.06 ЮЗ 3 20 км гроза без осадков 9/5 600 м
[Cb cap Ci fib]
+31.8 +16.1 39 +35 +37 очень
душно
1010.7 988.2
18 16.06 СЗ 1 10 км в посл. час гроза {ливн. осадки} 9/4 600 м
[Cb calv Ac trans Ci ing]
+21.0 +19.3 90 +27 +27 душно 1013.7 990.4 +34.1 6
21 16.06 штиль 0 10 км 10/8 600 м
[Sc Ac und]
+20.5 +18.9 91 +24 +24 комфорт 1014.7 991.3
00 17.06 З 1 10 км 9/0
[Ac As]
+19.4 +18.6 95 +23 +23 комфорт 1015.5 992.0
03 17.06 СЗ 2 10 км 9/0
[Ac lent Ci fib]
+18.8 +17.7 93 +21 +21 комфорт 1016.6 993.0
06 17.06 СЗ 2 20 км 10/4 600 м
[Sc Ac und]
+19.4 +16.9 85 +22 +23 комфорт 1017.8 994.2 +18.5
09 17.06 З 2 20 км 10/10 600 м
[Sc]
+21.5 +16.6 74 +25 +25 комфорт 1018.2 994.8
12 17.06 СЗ 3 20 км 9/3 600 м
[Cu Sc Ac und Ci fib]
+23.1 +15.1 61 +27 +32 душно 1018.0 994.7
15 17.06 С 4 20 км 8/5 600 м
[Cu Sc Ci fib]
+24.7 +14.1 52 +27 +29 жарко 1017.4 994.2
18 17.06 С 2 20 км 3/1 600 м
[Sc diur, vesp Ci fib]
+20.1 +14.3 69 +23 +23 комфорт 1018.6 995.0 +25.1
21 17.06 штиль 0 10 км 5/0
[Ac trans Ci fib]
+15.8 +14.0 89 +16 +16 1019.5 995.6
00 18.06 СЗ 1 10 км 9/0
[Ac und]
+15.8 +14.0 89 +16 +16 1019.8 995.9
06 18.06 С 1 20 км 9/5 1000 м
[Sc Ac trans]
+19.6 +14.6 73 +23 +25 комфорт 1020.1 996.5 +14.2
12 18.06 В 1 20 км 9/5 600 м
[Cu Sc Ac und Ci fib]
+24.8 +14.2 52 +27 +33 жарко 1018.8 995.6
18 18.06 штиль 0 20 км 3/0
[Ci fib]
+25.0 +12.8 47 +27 +27 жарко 1017.3 994.1 +26.6
00 19.06 штиль 0 20 км ясно +15.6 +13.8 89 +15 +15 1018.4 994.5
06 19.06 В 1 20 км 3/0
[Ci fib]
+23.8 +14.0 54 +26 +34 жарко 1017.1 993.9 +14.7
12 19.06 Ю 3 20 км 4/3 600 м
[Cu Sc Ci fib]
+28.4 +13.1 39 +30 +39 жарко 1014.9 992.1
18 19.06 штиль 0 20 км 9/4 600 м
[Cb cap Ac As]
+25.1 +16.2 58 +28 +28 жарко 1013.5 990.5 +29.1

 

Местоположение метеостанции Маневичи (Волынская область, Украина): широта 51.28 долгота 25.53 высота над уровнем моря 183 м.

В архиве по умолчанию представлена погода в Маневичах за последнюю неделю. Архивные данные за месяц целиком и за предыдущие месяцы, начиная с января 2011 года, Вы можете получить, выбрав интересующий диапазон дат из раскрывающегося списка и нажав кнопку "Ввод!".


*Определитесь, кто Вы:
робот инопланетянин человек

Внимание! Время в таблицах - всемирное. Для получения местного времени необходимо прибавить поправку, которая равна 2 ч.

Смотрите также архив погоды в соседних городах и на ближайших метеорологических станциях:

Погода в Любешове (Волынская область, Украина) (47 км)
Погода в Ковеле (Волынская область, Украина) (60 км)
Погода в Луцке (Волынская область, Украина) (65 км)
Погода в Свитязи (Волынская область, Украина) (69 км)
Погода в Сарнах (Ровенская область, Украина) (76 км)
Погода в Ровно (Ровенская область, Украина) (88 км)
Погода в Дубно (Ровенская область, Украина) (97 км)
Погода в Владимире-Волынском (Волынская область, Украина) (98 км)
Погода в Пинске (Брестская область, Беларусь) (100 км)
Погода в Дрогичине (Брестская область, Беларусь) (107 км)

Пояснения к столбцам:

Ветер - указаны скорость ветра в м/с - средняя за 10 мин, порывы в срок и между сроками (в фигурных скобках) и направление, откуда дует ветер: С - северный, СВ - северо-восточный, В - восточный, ЮВ - юго-восточный, Ю - южный, ЮЗ - юго-западный, З - западный, СЗ - северо-западный.
Видимость - горизонтальная дальность видимости в метрах или километрах. При видимости от 1 до 10 км при отсутствии осадков обычно наблюдается дымка, при ухудшении видимости до 1 км и менее - туман. В сухую погоду видимость может ухудшаться дымом, пылью или мглою.
Явления - указаны атмосферные явления, наблюдавшиеся в срок или в последний час перед сроком; фигурными скобками обозначены явления, наблюдавшиеся между сроками (за 1-3 часа до срока); квадратными скобками обозначены град или гололедные отложения с указанием их диаметра в мм.
Облачность - указаны через наклонную черту общая и нижняя облачность в баллах и высота нижней границы облаков в метрах; квадратными скобками обозначены формы облаков: Ci - перистые, Cs - перисто-слоистые, Cc - перисто-кучевые, Ac - высококучевые, As - высокослоистые, Sc - слоисто-кучевые, Ns - слоисто-дождевые, Cu - кучевые, Cb - кучево-дождевые. Подробнее классификацию облаков см. в Атласе облаков (PDF).
T - Температура воздуха - температура, измеренная на высоте 2 м над землей.
Td - Температура точки росы - температура, при понижении до которой содержащийся в воздухе водяной пар достигнет насыщения.
f - Относительная влажность воздуха - влажноcть воздуха, измеренная на высоте 2 м над землей.
Te - Эффективная температура - температура, которую ощущает одетый по сезону человек в тени. Характеристика душности погоды. При расчете учитывается влияние влажности воздуха и скорости ветра на теплоощущения человека.
Tes - Эффективная температура на солнце - температура, которую ощущает человек, с поправкой на солнечный нагрев. Характеристика знойности погоды. Зависит от высоты солнца над горизонтом, облачности и скорости ветра. Ночью, в пасмурную погоду, а также при ветре 12 м/с и более поправка равна нулю.
P - Атмосферное давление - приведенное к уровню моря атмосферное давление.
Po - Атмосферное давление - измеренное на уровне метеостанции атмосферное давление.
Tmin - Минимальная температура - минимум температуры воздуха на высоте 2 м над землей.
Tmax - Максимальная температура - максимум температуры воздуха на высоте 2 м над землей.
R - Количество осадков - Количество выпавших осадков за период времени, мм. При наведении курсора мыши на число - период времени, за который выпало указанное количество осадков.
R24 - Количество осадков - Количество выпавших осадков за 24 часа, мм.
S - Снежный покров - Высота снежного покрова, см. При наведении курсора мыши на число - состояние снежного покрова и степень покрытия местности в баллах.